THOR AGENA D R/B, 727

Orbit data source: Space-Track

THOR AGENA D R/B, 727 is space debris in LEO originally from a launch on Sat, 11 Jan 1964 UTC via a THOR SLV-2A AGENA D launch vehicle from the Air Force Western Test Range (AFWTR). Debris objects in space refer to the collection of defunct objects orbiting the Earth. Examples of debris include non-operational satellites, rocket bodies, and fragments generated from explosions, collisions, or faulty payload assembly.

Loading next visibility...
Identifier
727, 1964-001A
Orbit
LEO
Last TLE update
12 hours ago
Origin
Manufacturer
HRB-Singer
Mission
Spacecraft
Bus & Motor
AFTRACK, Unknown motor
Mass
~700 kg wet, 5 kg dry
Launch date (UTC)
1964-01-11 (61 years ago)
Launch vehicle
THOR SLV-2A AGENA D
Launch site
Air Force Western Test Range (AFWTR)
Object type
Payload
Rocket body
Debris
Shape & HBR
Cyl + 1 Nozzle, 7.08 m
Radar Cross Section
9.225 m², Large (>1 m²)

Expand to show TLE details & history

TLE from 12 hours ago
0 THOR AGENA D R/B
1   727U 64001A   25115.24786205  .00000108  00000-0  11818-3 0  9996
2   727  69.9036 107.5750 0015781 231.7000 128.2687 13.95720701119304
Epoch: 2025-04-25T05:56Z
Definitive object data (Epoch: 2025-04-25T05:56:55.281Z)
Latitude
0.00006°
Longitude
164.83701°
Altitude
918.091 km
Speed
7.39 km/s
True Right ascension
07h 10m 18s
True Declination
0° 00' 00"
Sunlit
Object was in daylight at TLE epoch
Visualization TLE readout
Latitude
55.05548°
Longitude
-164.87493°
Altitude
928.489 km
Speed
7.387 km/s
Apparent Right ascension
11h 33m 14s
Apparent Declination
13° 52' 54"
Sunlit
Object is in daylight
Visualization observer readout
Local Sidereal Time
01:32:18
Azimuth
33.623° NE
Elevation
-29.499°
Doppler factor
1
Orbital elements
Apogee altitude
918.201 km
Perigee altitude
895.208 km
Semi-major axis
7,284.842 km
Eccentricity
0.0015781
Inclination
69.9036°
RAAN
107.575°
Arg. of periapsis
231.7°
True anomaly
128.4105°
Mean anomaly
128.2687°
Eccentric anomaly
128.33962°
Mean motion
3.4907 °/min
BSTAR
0.00011818
Orbital period
103.13 mins
Loading maneuver chart data...
Loading SW <> Apogee altitude chart data...
Loading historical data...
Loading historical data...
Loading historical data...
Loading historical data...
Loading historical data...
Loading historical data...
Loading historical data...
Other satellites on launch #1 in the year 1964 (1964-01-11 UTC)

THOR AGENA D R/B Visibility forecast

Observer location: undefined°, undefined°

Span
Click to sort rows by Start time (UTC) header in descending order
Start Az.
Max El. time (UTC)
Max El. Az.
Max El.
End time (UTC)
End Az.
4 mins2025-04-25 23:17:43.060Z119.797° SE2025-04-25 23:19:43.060Z98.741° ESE13.704°2025-04-25 23:21:43.060Z77.572° E
10 mins2025-04-26 00:59:43.060Z207.913° SW2025-04-26 01:04:43.060Z311.688° NW44.608°2025-04-26 01:09:43.060Z22.03° NNE
4 mins2025-04-26 02:49:43.060Z297.975° NW2025-04-26 02:51:43.060Z320.051° NNW14.218°2025-04-26 02:53:43.060Z340.92° N
9 mins2025-04-26 10:02:43.060Z347.425° N2025-04-26 10:06:43.060Z56.601° ENE40.841°2025-04-26 10:11:43.060Z139.653° SSE
6 mins2025-04-26 11:49:43.060Z286.731° WNW2025-04-26 11:51:43.060Z262.21° W18.714°2025-04-26 11:55:43.060Z217.454° SW
|